[[{"header":{"parameterUnit":"m.s-1","parameterCategory":1,"la1":30.2991,"la2":30.254,"lo1":-89.0895,"lo2":-89.0444,"dy":0.0017,"dx":0.0017,"nx":28,"ny":28,"refTime":"2025-04-04T21:00:00:Z","depth":0,"parameterNumber":2,"parameterNumberName":"U-component_of_WINDS"},"data":[0,0,0,0,0,0,0,0,0,0,0,0,0,0,0,0,0,0,0,0,0,0,0,0,0,0,0,0,0,0,0,0,0,0,0,0,0,0,0,0,0,0,0,0,0,0,0,0,0,0,0,0,0,0,0,0,0,0,-4.4964,-4.4966,0,-4.5118,-4.512,-4.5121,-4.5166,-4.5165,-4.5164,-4.5163,-4.5322,-4.5327,-4.5332,0,0,0,0,0,0,0,0,0,0,0,0,0,-4.4711,-4.4715,-4.4964,-4.4966,-4.4968,-4.5118,-4.512,-4.5122,-4.5166,-4.5165,-4.5164,-4.5163,-4.5321,-4.5326,-4.5332,0,0,0,0,0,0,0,0,0,0,0,0,0,-4.4838,-4.4716,-4.4964,-4.5008,-4.5013,-4.5117,-4.512,-4.5123,-4.5166,-4.5165,-4.5164,-4.5162,-4.5319,-4.5326,-4.5333,-4.5405,0,0,-4.5356,-4.5359,0,0,0,0,0,0,0,0,-4.4831,-4.4847,-4.4999,-4.5005,-4.5011,-4.5121,-4.5089,-4.5217,-4.5166,-4.5108,-4.5163,-4.5162,-4.5256,-4.5269,-4.5301,-4.5412,-4.5419,-4.5357,-4.5361,-4.5365,-4.5367,0,0,0,0,0,0,0,-4.4822,-4.4841,-4.5025,-4.5002,-4.5009,-4.5021,-4.5037,-4.5113,-4.5188,-4.5113,-4.5117,-4.5134,-4.5259,-4.5293,-4.5305,-4.5421,-4.5357,-4.5363,-4.5368,-4.5371,-4.56,-4.5601,0,0,0,0,0,0,-4.4805,-4.4833,-4.502,-4.503,-4.4916,-4.5026,-4.5045,-4.5087,-4.5187,-4.5201,-4.5135,-4.5136,-4.5281,-4.5296,-4.531,-4.54,-4.5365,-4.5372,-4.5376,-4.5598,-4.56,-4.5602,0,0,0,0,0,0,-4.48,-4.4822,-4.5014,-4.4933,-4.4958,-4.5032,-4.5079,-4.5091,-4.5125,-4.5203,-4.5217,-4.5156,-4.5281,-4.53,-4.5381,-4.5406,-4.5375,-4.5382,-4.5596,-4.5599,-4.5601,-4.558,0,0,0,0,0,0,-4.4792,-4.4819,-4.4846,-4.4933,-4.4962,-4.5081,-4.5081,-4.5095,-4.5137,-4.514,-4.5226,-4.524,-4.5281,-4.5369,-4.5388,-4.5416,-4.5388,-4.5594,-4.5597,-4.56,-4.5578,-4.5581,-4.5583,0,0,0,0,0,-4.4783,-4.4835,-4.4848,-4.487,-4.4998,-4.5082,-4.5099,-4.5145,-4.5139,-4.5168,-4.5218,-4.5237,-4.5401,-4.5377,-4.5399,-4.5429,-4.5593,-4.5596,-4.56,-4.5577,-4.5581,-4.5583,0,0,0,0,0,0,-4.475,-4.4847,-4.4862,-4.4943,-4.5004,-4.5089,-4.5126,-4.5147,-4.5211,-4.5211,-4.5266,-4.5286,-4.5362,-4.5405,-4.5377,-4.5504,-4.5498,-4.5506,-4.5473,-4.5477,-4.5479,-4.5466,-4.5394,0,0,0,0,0,-4.4752,-4.4812,-4.4894,-4.4957,-4.4987,-4.5051,-4.509,-4.5121,-4.5186,-4.5212,-4.5269,-4.5332,-4.5398,-4.544,-4.5505,-4.5586,-4.5605,-4.5618,-4.562,-4.5622,-4.5627,-4.5673,-4.5679,-4.5613,-4.5613,-4.5613,0,0,-4.4756,-4.4817,-4.4851,-4.4952,-4.5003,-4.5064,-4.5073,-4.5137,-4.5183,-4.5222,-4.5301,-4.5346,-4.542,-4.5501,-4.554,-4.5539,-4.565,-4.5626,-4.5627,-4.5632,-4.5677,-4.5683,-4.5688,-4.5616,-4.5615,-4.5615,0,0,-4.4796,-4.4848,-4.4906,-4.4957,-4.5034,-4.5077,-4.5091,-4.5174,-4.5204,-4.5285,-4.5315,-4.5372,-4.5484,-4.5536,-4.5577,-4.5638,-4.5657,-4.5658,-4.5669,-4.5713,-4.5718,-4.5723,-4.5744,-4.575,-4.5664,-4.5664,-4.5664,0,-4.4792,-4.4884,-4.4934,-4.4997,-4.504,-4.5079,-4.5138,-4.5186,-4.528,-4.5309,-4.5307,-4.5449,-4.5502,-4.5595,-4.561,-4.5643,-4.566,-4.5647,-4.5713,-4.5719,-4.5724,-4.5744,-4.5752,-4.5663,-4.5663,-4.5663,-4.5663,0,-4.4875,-4.494,-4.4978,-4.5067,-4.5115,-4.5176,-4.5235,-4.5279,-4.5306,-4.5349,-4.5431,-4.5496,-4.5575,-4.56,-4.5628,-4.5698,-4.5695,-4.5702,-4.5697,-4.5729,-4.5749,-4.5757,-4.5662,-4.5662,-4.5663,-4.5663,0,0,-4.4896,-4.5012,-4.5025,-4.5066,-4.5154,-4.5205,-4.5269,-4.5346,-4.5381,-4.5446,-4.55,-4.5595,-4.5603,-4.565,-4.5684,-4.5722,-4.5765,-4.5726,-4.5728,-4.5729,-4.5846,-4.5838,-4.5846,-4.578,-4.5781,-4.5783,-4.5839,0,-4.4945,-4.5058,-4.5105,-4.5197,-4.5256,-4.5295,-4.535,-4.5411,-4.5453,-4.5511,-4.5559,-4.5625,-4.5631,-4.5659,-4.57,-4.5751,-4.5789,-4.5748,-4.583,-4.5833,-4.5808,-4.5857,-4.5848,-4.5898,-4.5847,-4.5849,-4.585,0,-4.5017,-4.5081,-4.5178,-4.5259,-4.5286,-4.5335,-4.5409,-4.5464,-4.5534,-4.5562,-4.5615,-4.5647,-4.5716,-4.5708,-4.5803,-4.5774,-4.5811,-4.5842,-4.5845,-4.5853,-4.5841,-4.5864,-4.5915,-4.5922,-4.5863,-4.5862,-4.5861,0,-4.5019,-4.5131,-4.5203,-4.5237,-4.5334,-4.5367,-4.541,-4.5478,-4.5522,-4.5587,-4.5616,-4.5689,-4.5729,-4.5785,-4.5837,-4.5826,-4.5927,-4.5924,-4.5953,-4.5951,-4.597,-4.5968,-4.6026,-4.5997,-4.5997,-4.5997,-4.5997,0,-4.5068,-4.5126,-4.5205,-4.525,-4.5316,-4.537,-4.5435,-4.548,-4.5541,-4.5595,-4.5634,-4.5685,-4.575,-4.581,-4.5851,-4.5923,-4.5942,-4.5967,-4.5976,-4.5962,-4.5958,-4.5985,-4.5982,-4.5999,-4.5999,-4.5998,-4.5998,0,-4.5081,-4.5137,-4.5218,-4.5304,-4.5327,-4.5371,-4.5445,-4.549,-4.5535,-4.5604,-4.5623,-4.5694,-4.5766,-4.5824,-4.5918,-4.5946,-4.6021,-4.6033,-4.5997,-4.6001,-4.6027,-4.6023,-4.6103,-4.6116,-4.6079,-4.608,-4.608,0,-4.5107,-4.5153,-4.5243,-4.5281,-4.5323,-4.5385,-4.5429,-4.5486,-4.553,-4.5614,-4.5649,-4.5724,-4.5786,-4.5899,-4.5959,-4.6032,-4.6045,-4.6068,-4.6056,-4.604,-4.6044,-4.6039,-4.6044,-4.6068,-4.6069,-4.6069,-4.6069,0,-4.5148,-4.5173,-4.5235,-4.5307,-4.5358,-4.5418,-4.5478,-4.5508,-4.5576,-4.5624,-4.5697,-4.5746,-4.5842,-4.5915,-4.5994,-4.6039,-4.6065,-4.6073,-4.6083,-4.6067,-4.6043,-4.6055,-4.5998,-4.607,-4.607,-4.607,-4.607,-4.607,-4.5167,-4.5209,-4.5279,-4.5346,-4.5398,-4.5454,-4.55,-4.5551,-4.5613,-4.5694,-4.5725,-4.58,-4.587,-4.5979,-4.6024,-4.6085,-4.6087,-4.6102,-4.6106,-4.6108,-4.6105,-4.6036,-4.61,-4.61,-4.61,-4.61,-4.61,0,-4.5208,-4.5255,-4.5317,-4.54,-4.5453,-4.5474,-4.5542,-4.5585,-4.5651,-4.5714,-4.5774,-4.5859,-4.5931,-4.5997,-4.6073,-4.6108,-4.6122,-4.6126,-4.6123,-4.6133,-4.61,-4.6082,-4.6113,-4.6113,-4.6113,-4.6113,-4.6113,-4.6113,-4.5235,-4.5306,-4.534,-4.5438,-4.5485,-4.5558,-4.5595,-4.5647,-4.5698,-4.579,-4.585,-4.5893,-4.5958,-4.6038,-4.6105,-4.6124,-4.6149,-4.6149,-4.617,-4.6137,-4.6135,-4.6133,-4.6117,-4.6154,-4.6154,-4.6198,-4.6198,-4.6198]},{"header":{"parameterUnit":"m.s-1","parameterCategory":1,"la1":30.2991,"la2":30.254,"lo1":-89.0895,"lo2":-89.0444,"dy":0.0017,"dx":0.0017,"nx":28,"ny":28,"refTime":"2025-04-04T21:00:00:Z","depth":0,"parameterNumber":3,"parameterNumberName":"V-component_of_WINDS"},"data":[0,0,0,0,0,0,0,0,0,0,0,0,0,0,0,0,0,0,0,0,0,0,0,0,0,0,0,0,0,0,0,0,0,0,0,0,0,0,0,0,0,0,0,0,0,0,0,0,0,0,0,0,0,0,0,0,0,0,5.6963,5.6963,0,5.6998,5.6998,5.6999,5.6986,5.6986,5.6985,5.6984,5.7018,5.702,5.7022,0,0,0,0,0,0,0,0,0,0,0,0,0,5.6883,5.6884,5.6963,5.6963,5.6963,5.6998,5.6998,5.6999,5.6986,5.6986,5.6985,5.6984,5.7018,5.702,5.7022,0,0,0,0,0,0,0,0,0,0,0,0,0,5.6918,5.6885,5.6962,5.6961,5.6962,5.6998,5.6998,5.6999,5.6987,5.6986,5.6984,5.6983,5.7017,5.702,5.7022,5.7061,0,0,5.703,5.7031,0,0,0,0,0,0,0,0,5.6916,5.6921,5.6961,5.6962,5.6962,5.6987,5.6983,5.702,5.6987,5.6977,5.6984,5.6983,5.7009,5.7012,5.7021,5.7062,5.7064,5.703,5.7031,5.7032,5.7033,0,0,0,0,0,0,0,5.6913,5.6919,5.6976,5.6962,5.6962,5.6959,5.6962,5.699,5.6999,5.6978,5.6977,5.6982,5.7009,5.7019,5.7022,5.7064,5.703,5.7032,5.7033,5.7034,5.7141,5.7142,0,0,0,0,0,0,5.6911,5.6917,5.6975,5.6978,5.6936,5.6961,5.6965,5.698,5.6999,5.7,5.6983,5.6981,5.7015,5.7019,5.7023,5.7071,5.7032,5.7035,5.7036,5.7139,5.7141,5.7142,0,0,0,0,0,0,5.6909,5.6916,5.6974,5.6947,5.6954,5.6964,5.698,5.6981,5.6991,5.7002,5.7004,5.6991,5.7014,5.7019,5.7052,5.7072,5.7036,5.7038,5.7138,5.714,5.7142,5.7166,0,0,0,0,0,0,5.6907,5.6916,5.6931,5.6948,5.6956,5.7003,5.6981,5.6983,5.6996,5.6994,5.7011,5.7012,5.7014,5.7048,5.7054,5.7074,5.704,5.7136,5.7139,5.7141,5.7163,5.7168,5.7173,0,0,0,0,0,5.6904,5.6935,5.6932,5.6939,5.6975,5.7004,5.7009,5.701,5.6997,5.7012,5.702,5.7012,5.7068,5.7052,5.7058,5.7079,5.7135,5.7138,5.7141,5.7161,5.7167,5.7173,0,0,0,0,0,0,5.692,5.6938,5.6934,5.6971,5.6986,5.7002,5.7021,5.7016,5.7035,5.7032,5.7033,5.7037,5.7071,5.7078,5.7059,5.7119,5.71,5.7104,5.7113,5.7119,5.7123,5.7121,5.7042,0,0,0,0,0,5.6928,5.695,5.6964,5.6996,5.7004,5.7011,5.7024,5.7024,5.7039,5.7046,5.7055,5.707,5.7091,5.7105,5.7125,5.7164,5.7168,5.7182,5.7186,5.719,5.7194,5.7217,5.7224,5.7152,5.7152,5.7152,0,0,5.6944,5.6956,5.697,5.7,5.7011,5.7035,5.7017,5.7042,5.7059,5.7049,5.7081,5.7089,5.7105,5.7142,5.7158,5.7149,5.7215,5.7194,5.7197,5.7199,5.7221,5.7227,5.7233,5.7154,5.7154,5.7154,0,0,5.6986,5.6997,5.7026,5.7038,5.7057,5.7061,5.7068,5.7085,5.709,5.7122,5.7115,5.7136,5.7172,5.7185,5.7196,5.7244,5.7237,5.725,5.7275,5.7297,5.7302,5.7307,5.7326,5.7332,5.7254,5.7254,5.7254,0,5.7004,5.7039,5.7041,5.7067,5.7081,5.7073,5.7102,5.7114,5.7138,5.7147,5.7136,5.7183,5.7193,5.7233,5.7245,5.7254,5.7262,5.7248,5.7302,5.7307,5.7311,5.7329,5.7336,5.7255,5.7255,5.7255,5.7255,0,5.7061,5.7086,5.7106,5.7131,5.7146,5.7174,5.7179,5.7195,5.7193,5.7199,5.7233,5.7245,5.7268,5.7277,5.7276,5.7318,5.7312,5.7301,5.7282,5.732,5.7336,5.7343,5.7258,5.7257,5.7257,5.7256,0,0,5.7114,5.714,5.7147,5.7159,5.7179,5.7198,5.7225,5.7249,5.7262,5.7279,5.7302,5.7334,5.7325,5.7337,5.7337,5.7356,5.7395,5.7344,5.7344,5.7354,5.7443,5.7452,5.746,5.7391,5.7392,5.7393,5.7442,0,5.7159,5.7208,5.721,5.7255,5.7278,5.7272,5.7296,5.731,5.7317,5.7337,5.7344,5.7367,5.7352,5.736,5.7379,5.7386,5.7413,5.7383,5.7413,5.7414,5.741,5.7468,5.7477,5.7523,5.7449,5.745,5.745,0,5.7218,5.7238,5.7285,5.7303,5.7313,5.7334,5.7357,5.7376,5.7393,5.7396,5.7411,5.7408,5.7436,5.7416,5.7455,5.7434,5.7447,5.7452,5.7454,5.7458,5.7435,5.7474,5.7537,5.7545,5.746,5.746,5.7459,0,5.7254,5.7292,5.7326,5.7335,5.7357,5.7372,5.7382,5.7397,5.7412,5.7431,5.744,5.7462,5.7474,5.7491,5.7495,5.7479,5.7534,5.7514,5.7538,5.7538,5.7551,5.755,5.7618,5.7557,5.7557,5.7556,5.7556,0,5.7305,5.7334,5.7342,5.7363,5.7396,5.7398,5.7431,5.7439,5.7453,5.7475,5.747,5.7491,5.7494,5.7515,5.7518,5.755,5.7555,5.7559,5.756,5.7561,5.756,5.7569,5.7567,5.7558,5.7558,5.7557,5.7557,0,5.7351,5.7357,5.7394,5.7411,5.7416,5.744,5.7455,5.7475,5.7481,5.7509,5.7516,5.7525,5.755,5.7555,5.7584,5.7586,5.7625,5.7622,5.762,5.762,5.7645,5.7643,5.7722,5.7733,5.7663,5.7664,5.7664,0,5.7384,5.7407,5.7427,5.7442,5.7452,5.7476,5.7491,5.7494,5.751,5.7531,5.7549,5.7573,5.7594,5.7634,5.7643,5.7666,5.7664,5.769,5.7667,5.7668,5.7666,5.7665,5.7668,5.7695,5.7695,5.7696,5.7696,0,5.7442,5.7444,5.7466,5.749,5.7508,5.7527,5.7544,5.7556,5.7561,5.7579,5.7606,5.7621,5.7652,5.7677,5.77,5.7709,5.7704,5.7703,5.7711,5.7712,5.7711,5.7713,5.7633,5.7702,5.7701,5.7701,5.7701,5.77,5.7484,5.7504,5.7522,5.7547,5.756,5.7577,5.7597,5.7606,5.7628,5.7654,5.7654,5.7683,5.7699,5.773,5.774,5.7763,5.7755,5.7765,5.7768,5.777,5.7774,5.7706,5.7767,5.7767,5.7767,5.7767,5.7766,0,5.7543,5.7554,5.7577,5.7602,5.7622,5.7616,5.7635,5.7652,5.7678,5.7694,5.7714,5.7744,5.7769,5.778,5.7804,5.782,5.7818,5.7826,5.7826,5.7829,5.7779,5.7771,5.7827,5.7827,5.7827,5.7827,5.7827,5.7827,5.7576,5.7611,5.7615,5.7657,5.7668,5.7697,5.7708,5.7724,5.7737,5.7772,5.7792,5.7799,5.7814,5.7839,5.7861,5.7863,5.7873,5.7883,5.7884,5.7838,5.7832,5.7826,5.7819,5.7884,5.7884,5.7932,5.7933,5.7933]}]]